Wind_Speed
21 21 21 21 21 21 22 22 22 22 22 21 20 20 20 20 19 19 18 18 17 16 16 16 17 17 17 17 17 17 17 18 19 19 19 18 19 19 20 20 21 22 22 22 23 23 24 25 26 26 27 28 29 30 30 31 32 33 33 34 33 33 33 35 38 36 32 30 32 33 33 33 31 29 28 27 27 27 27 27 28 30 31 32 31
20 20 20 20 19 20 21 22 22 22 22 21 20 19 19 19 19 18 18 18 17 16 16 17 18 18 18 18 19 19 19 19 19 20 20 21 21 21 21 21 22 23 23 24 24 24 25 26 27 27 28 29 29 30 30 30 30 31 31 31 31 31 32 34 36 37 35 32 31 33 33 33 32 29 28 29 30 30 29 28 28 29 31 32 30
17 17 18 19 18 19 19 20 20 21 21 19 18 17 17 18 18 18 18 18 17 16 17 18 19 19 19 19 19 19 19 20 21 21 22 22 22 22 23 23 24 24 24 25 25 25 26 26 27 27 28 29 29 29 29 28 28 29 30 30 31 31 31 32 33 35 35 32 30 30 32 33 32 30 30 30 31 32 30 29 29 30 32 32 29
12 12 14 16 17 17 18 19 19 20 19 17 16 16 16 16 17 17 17 17 17 17 18 19 19 19 20 19 19 19 20 21 22 23 23 23 23 23 24 24 25 26 25 25 25 26 26 26 26 27 27 28 27 27 27 27 27 28 29 30 31 31 29 30 31 32 31 31 29 28 29 32 32 32 33 31 31 31 30 30 30 30 31 31 29
14 13 14 14 14 14 15 15 16 16 16 15 15 15 16 17 17 17 17 17 18 18 19 19 19 19 19 19 18 18 19 20 22 23 24 24 24 25 25 25 25 26 25 25 25 25 25 26 27 27 27 26 25 25 26 28 28 29 30 30 30 30 29 28 29 29 29 29 29 29 29 30 31 33 34 31 30 31 31 31 32 32 31 30 30
21 21 20 16 14 12 12 12 12 14 15 15 16 17 18 18 17 16 16 16 17 17 17 17 17 17 17 17 17 18 19 20 21 22 23 23 24 25 25 25 25 25 25 25 25 25 25 26 26 25 25 26 26 27 28 30 30 30 30 29 28 28 28 27 27 28 29 29 29 29 29 30 30 32 33 31 30 31 32 33 33 33 32 31 32
24 25 23 16 13 11 11 12 13 14 16 17 18 19 19 18 16 15 15 15 16 16 16 16 16 16 16 17 17 18 19 20 21 22 23 23 24 24 24 24 24 24 24 24 24 25 26 26 25 24 25 27 27 28 29 30 29 29 29 28 27 27 26 26 26 27 28 28 29 29 29 29 31 32 31 31 31 31 33 33 31 30 29 29 31
22 21 19 14 12 11 11 12 14 16 17 18 18 18 18 16 15 14 14 14 15 15 15 15 15 16 16 17 18 18 19 20 21 22 22 22 22 22 22 21 21 21 22 22 23 24 24 24 23 23 24 24 24 24 26 27 27 27 28 28 27 25 23 22 23 25 27 28 29 29 27 28 31 30 27 28 29 29 30 29 26 25 24 24 25
18 16 14 12 12 11 11 12 13 14 16 17 17 17 16 15 14 14 14 13 14 14 14 14 15 16 16 17 18 19 19 20 20 20 19 18 18 18 17 16 17 18 18 19 19 20 20 19 18 19 18 18 19 19 20 22 23 23 23 24 24 22 21 21 22 24 25 26 27 28 27 26 27 26 25 25 27 26 25 25 26 24 22 22 22
16 14 13 11 10 8 11 14 13 13 14 15 15 15 15 15 14 13 13 13 13 13 14 14 15 16 17 18 19 19 18 17 17 16 14 13 12 12 12 12 13 14 15 15 16 16 16 16 16 16 16 16 16 17 17 17 18 17 18 19 20 21 21 22 23 23 23 24 25 25 25 25 24 23 23 24 25 25 24 25 25 24 23 22 22
17 16 14 12 10 10 12 15 14 13 14 14 14 14 14 13 12 11 12 12 13 13 13 14 15 16 16 17 16 15 14 13 12 10 9 8 8 8 9 10 11 13 13 14 15 15 15 15 15 15 15 15 15 15 15 15 15 14 15 16 18 19 20 21 22 22 22 23 24 23 24 25 23 22 22 23 23 24 24 24 24 23 23 22 21
19 18 15 12 11 11 12 14 14 14 14 14 13 13 12 11 10 10 11 12 13 14 14 14 14 14 13 12 11 9 8 7 7 6 6 6 6 7 8 10 11 12 13 14 15 15 14 14 14 14 14 14 14 14 14 14 14 13 13 15 16 18 19 20 21 21 22 23 23 22 23 24 23 22 22 23 22 22 22 23 23 23 22 21 21
18 17 14 12 11 12 13 13 14 14 14 14 14 13 12 10 9 10 11 12 13 14 13 12 11 10 9 8 6 5 5 5 6 6 7 7 8 9 10 11 12 12 13 13 14 14 13 13 14 14 14 14 14 15 14 14 14 14 14 15 16 17 18 20 20 21 22 22 22 21 22 23 23 23 23 23 22 22 21 21 22 22 21 20 20
16 14 12 11 11 11 12 12 13 13 13 13 14 14 12 11 11 11 12 13 13 12 10 9 8 7 7 6 5 4 4 5 6 7 8 8 9 9 10 10 11 12 12 13 13 13 13 13 14 14 15 15 15 15 15 15 15 16 16 16 17 17 18 19 20 21 21 21 22 22 22 23 23 23 23 23 23 23 22 21 21 21 21 20 20
14 13 12 11 11 12 12 12 12 12 11 11 11 12 11 11 12 13 13 13 11 10 8 7 6 6 7 6 5 5 5 5 6 6 7 7 8 8 9 9 10 10 11 11 11 12 11 11 12 12 13 13 13 14 15 15 15 16 16 16 17 17 18 18 19 20 20 20 22 22 23 23 23 23 23 23 23 23 22 22 21 21 21 21 21
13 12 12 12 12 13 13 12 12 11 11 10 10 10 11 12 13 13 12 11 9 8 7 7 6 6 6 5 5 5 5 5 5 5 5 6 6 7 7 7 8 8 8 9 9 10 10 10 10 11 12 12 12 12 13 13 14 15 16 16 17 17 17 18 18 19 21 21 21 22 22 22 22 22 22 21 21 22 22 22 22 22 22 22 23
12 12 13 13 13 13 13 13 12 12 11 11 11 11 12 12 12 11 10 9 8 7 7 7 6 6 5 5 5 4 4 4 4 4 4 4 5 5 6 6 7 7 8 9 10 10 11 11 12 12 13 13 14 14 14 14 15 15 16 17 17 17 19 19 18 18 20 21 21 21 21 21 21 21 21 21 21 22 22 23 23 24 24 24 25
13 14 15 15 15 14 13 12 11 11 11 11 12 12 11 11 11 10 9 8 8 7 7 7 6 6 5 4 4 3 3 3 3 3 3 4 5 6 6 7 8 9 9 11 12 12 13 13 14 14 14 15 15 15 15 15 16 16 17 17 18 18 19 20 19 18 19 20 20 20 21 21 21 22 22 23 23 23 24 24 25 26 26 27 28
14 16 17 17 15 14 13 11 10 10 11 11 12 11 11 11 10 9 8 8 8 8 7 7 6 5 4 3 2 2 2 2 3 3 4 5 5 6 7 8 9 10 11 12 13 14 14 15 15 15 16 16 16 16 16 16 17 17 17 18 19 19 19 19 20 20 20 20 20 20 21 22 23 24 24 25 25 26 27 27 27 27 27 27 28
16 17 17 16 15 13 12 11 11 11 12 12 12 12 12 11 10 9 9 8 8 8 7 6 5 4 3 3 2 2 1 2 2 3 4 5 6 8 9 10 11 12 13 14 14 15 16 16 16 17 17 17 18 18 18 18 18 18 18 18 19 19 20 20 20 21 21 21 22 22 23 24 25 25 26 26 26 26 27 27 27 27 27 27 28
15 16 16 16 14 13 12 12 13 13 13 14 14 13 12 11 10 9 8 8 7 6 5 5 4 4 3 2 2 1 1 2 3 4 5 6 8 10 11 12 13 14 14 15 16 17 17 18 18 18 18 18 18 18 19 19 19 19 19 19 19 19 19 20 20 21 21 22 22 23 23 24 25 25 26 26 26 26 26 27 27 27 27 27 27
14 15 15 14 13 13 13 14 14 14 14 14 14 13 12 11 10 9 8 7 7 6 5 5 5 4 3 2 1 2 3 4 5 6 8 9 10 11 13 13 14 15 16 16 17 18 18 18 19 19 19 19 19 19 19 19 19 19 19 19 20 19 20 20 20 20 21 21 21 22 22 23 23 23 23 24 25 26 26 26 26 27 27 26 27
14 14 13 13 14 14 15 15 15 15 15 14 13 12 11 11 10 9 8 8 7 7 6 6 5 4 3 3 3 4 5 6 7 8 10 11 12 13 13 14 15 15 16 17 17 17 18 18 18 19 19 19 20 20 20 20 20 20 19 19 19 19 19 20 20 20 20 20 20 21 21 21 21 21 21 21 22 24 25 25 25 26 26 25 25
14 13 13 14 15 15 15 16 15 14 14 13 13 12 11 10 9 8 7 7 7 6 6 5 4 4 4 4 5 6 7 8 9 10 11 12 13 14 14 15 15 16 16 17 17 17 17 18 18 19 20 20 21 21 21 21 21 21 20 20 20 20 19 19 19 19 19 18 18 18 19 19 21 22 22 22 24 25 26 25 25 26 26 26 25
13 14 14 15 15 16 16 16 15 14 14 13 12 11 10 9 8 7 7 6 6 5 5 4 4 5 5 7 8 9 9 10 11 11 12 12 13 14 15 16 16 16 16 16 16 17 18 18 19 19 20 21 21 22 21 21 21 21 21 21 21 20 20 19 19 19 19 18 18 18 19 20 22 23 23 24 25 27 27 26 25 26 26 26 26
13 14 15 16 17 17 17 16 16 16 15 14 13 11 10 9 8 7 6 5 4 4 4 5 6 7 8 9 10 10 10 11 12 12 13 13 14 15 16 16 16 16 17 17 17 18 19 19 19 20 20 21 21 21 21 21 21 22 21 21 21 21 20 20 20 19 20 20 20 21 21 23 25 26 26 26 26 26 26 25 25 25 24 24 25
14 15 17 18 18 18 18 17 17 16 15 14 13 11 10 8 7 6 5 4 4 5 5 6 7 8 9 10 10 10 11 12 13 14 15 15 16 17 17 17 17 18 18 19 20 21 21 21 21 21 20 21 21 21 21 20 21 22 22 21 22 21 21 21 21 21 21 21 21 22 23 24 26 27 27 27 26 26 24 24 24 25 25 25 26
16 17 18 19 19 19 18 17 16 14 13 12 11 10 9 8 7 6 5 5 5 5 5 6 7 8 10 11 11 12 12 13 14 15 17 18 18 19 19 19 19 20 20 21 22 22 22 22 21 21 21 21 21 22 22 21 21 21 22 22 22 22 23 23 23 23 23 23 23 23 24 25 26 26 26 26 26 26 27 27 28 28 29 29 29
18 19 20 20 19 19 18 17 15 13 12 11 10 9 8 7 7 6 6 5 5 5 6 7 8 9 11 12 13 13 14 15 16 17 18 19 20 20 20 21 21 22 22 22 22 23 22 21 21 22 22 22 22 23 24 24 23 23 23 23 24 24 24 25 25 25 26 26 26 26 26 26 27 27 28 28 29 30 31 32 32 31 31 32 31
19 20 21 21 20 19 18 17 15 13 12 11 9 8 7 7 6 6 6 6 6 6 7 8 9 10 11 13 14 15 16 17 18 19 20 20 20 21 21 22 23 23 23 23 23 22 22 21 21 22 22 23 23 24 24 25 25 24 24 24 24 24 25 25 26 26 27 28 28 29 28 28 28 28 29 30 31 32 33 33 32 32 32 32 32
21 21 20 20 19 19 18 16 14 13 11 10 9 8 7 6 6 6 7 7 7 7 8 9 10 11 13 14 15 17 18 19 19 19 19 20 21 22 23 23 23 23 22 22 22 22 22 22 22 21 22 23 23 23 24 24 24 24 24 24 24 24 24 24 25 26 27 27 28 29 29 29 29 29 29 30 30 31 31 31 31 31 31 31 32
22 20 19 19 19 18 17 16 15 13 11 9 8 8 7 7 8 8 8 8 8 8 9 10 11 13 14 16 17 18 18 19 19 19 20 21 22 23 23 23 23 22 22 22 22 22 22 22 22 21 22 22 22 22 23 23 23 23 23 23 23 23 24 24 25 26 26 27 27 28 28 29 29 29 29 30 30 30 30 31 31 31 31 30 30
21 21 20 19 19 18 17 16 14 12 10 9 7 7 7 8 9 9 9 9 10 10 11 12 13 14 16 17 18 18 18 18 19 19 20 21 22 22 22 22 22 22 22 22 22 22 21 22 21 21 21 21 21 21 22 22 22 22 23 23 23 23 23 23 24 24 25 25 26 27 27 28 28 29 29 29 30 29 30 30 30 30 30 30 29
22 22 22 20 19 18 17 14 12 10 9 8 7 7 8 9 10 10 10 10 11 12 13 13 15 17 18 19 19 19 18 19 19 20 21 22 22 22 22 21 21 21 21 21 21 21 21 21 21 21 21 21 21 21 22 22 22 22 23 23 23 23 23 23 23 24 24 25 25 25 26 26 27 27 28 28 29 29 29 29 30 30 30 30 29
22 21 20 19 18 16 14 12 10 9 8 7 7 8 9 10 11 11 11 11 12 13 15 16 17 19 21 21 21 20 20 21 22 22 22 22 22 21 21 21 20 20 19 20 20 20 20 21 21 21 21 21 22 22 22 23 23 23 24 24 24 24 24 24 24 24 24 25 25 25 26 26 26 27 27 28 28 29 29 29 29 30 30 29 29
22 19 17 16 14 11 10 9 10 9 8 8 9 11 12 13 13 12 13 14 14 16 17 19 19 21 21 21 21 21 21 22 22 21 21 21 20 20 20 19 19 19 19 19 19 20 20 21 21 21 21 22 22 22 23 23 24 24 24 25 25 25 25 25 25 25 25 25 26 26 26 26 27 27 27 28 28 29 29 29 29 29 30 30 29
21 19 16 14 12 10 9 9 9 9 9 10 12 13 14 14 14 15 15 17 18 18 19 20 21 21 21 21 22 22 22 22 21 21 20 19 19 19 19 19 19 19 19 19 19 20 20 21 21 22 22 22 23 23 23 24 24 24 24 24 24 25 25 25 25 25 25 25 25 26 26 27 27 27 27 28 28 29 29 30 30 30 30 30 30
24 21 18 14 12 10 9 9 9 9 11 12 13 14 15 15 16 17 18 19 20 21 21 22 22 22 22 22 22 22 22 21 21 20 19 19 18 18 18 19 19 19 19 20 20 21 21 21 22 22 22 22 22 23 23 23 23 23 24 24 24 25 25 25 25 24 24 25 25 25 25 26 26 26 27 27 28 28 29 29 30 30 30 30 30
21 19 17 14 12 11 10 9 9 10 12 14 15 16 17 18 19 21 21 21 21 22 22 22 22 22 23 23 23 22 22 21 20 20 19 19 19 19 19 20 20 21 21 22 22 22 22 22 22 22 22 22 22 23 23 23 24 24 24 24 25 25 25 25 25 25 25 25 25 25 26 26 26 26 27 27 27 27 28 28 28 29 29 29 29
16 13 12 12 12 11 9 8 10 11 13 14 15 16 18 21 23 24 23 22 22 21 21 21 22 22 22 22 22 21 21 20 20 19 19 19 19 20 20 21 22 22 23 23 22 22 22 22 22 23 23 23 23 23 23 24 24 25 25 25 25 25 25 25 25 25 25 25 25 25 26 26 25 25 26 26 26 27 27 27 27 27 28 28 28
15 13 12 13 13 10 8 7 9 11 12 14 16 18 20 23 24 24 23 21 21 21 21 21 21 21 21 20 19 19 19 19 19 19 19 19 20 20 21 22 22 22 22 22 22 22 22 22 23 23 23 24 24 24 24 23 24 24 25 25 25 25 25 26 26 25 26 26 26 26 26 27 26 26 26 26 26 26 26 26 26 26 27 27 28
15 14 15 15 13 9 8 9 11 13 15 16 18 20 21 22 23 22 21 20 20 21 20 20 19 19 18 18 18 18 18 18 19 19 19 20 20 20 20 21 21 21 21 22 22 23 23 23 23 23 23 23 24 24 24 24 24 25 26 26 26 26 26 26 27 27 27 27 27 27 28 28 28 27 27 27 26 26 27 27 27 27 27 27 27
17 16 15 14 12 11 12 15 18 20 20 20 20 21 22 21 20 20 20 20 20 20 19 19 18 17 17 17 18 18 18 19 19 20 20 20 20 20 20 20 20 21 21 22 22 22 23 23 23 23 24 24 24 25 26 26 26 27 27 28 28 28 28 28 28 28 28 28 28 29 29 29 29 29 29 29 28 28 29 29 29 29 29 29 29
17 16 15 14 13 14 16 19 22 23 24 23 22 22 21 20 19 19 19 19 19 18 18 18 17 17 17 17 17 18 18 19 19 19 19 19 19 19 19 20 20 20 21 21 21 22 22 23 24 24 25 25 26 26 27 27 27 28 28 29 29 30 30 30 29 29 29 29 29 29 30 30 30 31 31 30 30 30 30 30 30 30 30 30 30
17 16 15 15 14 15 18 21 23 24 24 22 21 20 19 18 18 18 18 17 17 16 16 16 16 16 16 17 17 17 17 17 18 18 18 18 18 18 19 19 19 20 20 21 22 22 23 24 25 25 26 27 27 27 28 28 28 28 28 29 29 30 30 31 31 30 30 30 30 30 30 31 31 32 32 32 32 31 31 31 31 31 31 31 30
17 16 15 14 15 17 20 22 22 21 20 18 17 17 17 17 16 16 15 15 14 14 14 14 15 15 15 15 15 15 16 16 17 17 17 17 17 17 18 18 19 19 20 21 22 23 24 24 25 26 27 27 27 28 28 29 29 30 30 30 30 30 31 32 32 32 32 32 32 32 32 32 32 33 34 34 34 33 33 32 32 32 32 31 31
18 17 16 16 17 19 19 18 17 17 16 15 15 15 15 14 14 13 12 12 12 13 13 13 13 13 13 13 14 14 14 15 15 16 16 16 17 17 18 19 19 21 22 23 23 24 25 25 26 27 28 28 28 29 29 30 31 31 32 33 33 33 34 34 35 35 35 35 35 35 34 33 34 34 35 35 36 36 35 34 33 32 31 31 30
19 18 16 16 16 16 15 13 13 13 13 13 13 12 12 11 10 10 10 10 11 11 11 11 12 12 12 12 13 13 14 14 15 15 16 17 18 19 19 20 21 22 23 24 25 25 25 26 27 27 28 29 30 31 31 32 32 33 33 33 34 34 34 35 35 36 36 36 36 36 35 34 34 34 35 35 36 36 36 36 34 33 32 31 30
19 17 15 13 12 12 11 10 11 11 11 10 10 9 9 9 9 9 9 9 9 9 10 10 11 11 11 12 12 13 13 14 15 16 17 18 19 20 20 21 22 23 24 25 26 27 27 28 29 29 30 31 31 32 32 33 33 33 33 34 35 35 35 36 36 36 37 37 37 36 35 34 34 34 34 34 35 36 36 36 35 34 33 33 32
14 12 11 9 9 9 8 8 9 8 8 7 7 7 7 7 7 7 8 8 8 8 9 9 10 10 11 12 13 13 14 15 16 17 18 19 19 20 21 22 23 24 25 26 27 28 29 30 31 31 32 32 32 33 33 33 34 34 34 34 35 36 37 37 37 37 38 38 39 38 37 36 35 34 34 33 33 34 35 35 34 34 33 33 33
8 7 7 7 6 6 6 6 6 5 5 6 6 6 6 6 6 6 6 7 7 8 8 9 9 10 11 12 13 13 15 16 17 18 19 20 21 22 23 24 25 26 27 27 28 29 29 30 31 31 32 32 33 33 33 34 35 35 35 35 35 36 37 38 39 39 39 39 40 39 39 38 37 36 35 34 33 33 34 34 34 34 33 33 33
Wind_Direction
230 233 232 230 229 227 226 225 227 230 232 232 233 234 235 237 240 244 249 251 252 254 258 262 264 264 265 267 270 270 268 268 270 271 272 273 273 273 274 274 275 275 274 273 272 270 269 270 272 273 273 273 273 273 273 274 276 278 279 281 282 284 285 284 284 286 286 281 277 274 276 279 278 278 282 284 283 282 280 279 279 279 279 276 275
233 232 230 230 230 229 228 227 228 231 233 234 235 237 238 240 242 246 249 250 253 257 262 264 264 264 264 266 267 268 269 270 270 271 272 271 270 269 270 271 271 272 273 273 273 271 271 272 273 274 274 275 276 276 276 276 277 279 281 284 286 286 285 284 282 283 283 281 280 276 275 278 279 278 281 283 283 282 281 279 278 278 277 274 274
234 227 224 226 227 227 226 227 229 231 234 236 238 240 242 243 246 248 249 251 253 255 257 258 260 260 261 261 264 266 267 268 268 270 271 271 270 270 270 271 271 272 273 274 274 273 274 275 276 276 276 277 277 277 278 280 281 283 285 286 286 286 284 282 282 282 280 278 278 278 277 277 278 278 277 277 278 280 280 280 280 279 278 278 277
225 220 220 223 225 225 224 225 227 231 235 237 240 243 244 245 247 248 249 249 250 250 252 257 260 262 264 267 269 270 270 270 271 272 273 273 273 272 272 271 272 274 275 275 275 276 277 277 277 277 279 280 281 280 281 282 283 285 287 288 287 285 282 279 279 279 278 275 275 277 278 277 276 276 274 272 274 276 278 280 280 279 278 278 278
217 217 217 214 213 218 221 222 224 229 234 236 238 240 241 243 245 247 248 248 249 251 255 261 266 269 272 274 274 275 277 277 277 276 276 276 276 276 275 274 274 275 276 277 277 278 279 279 279 280 281 282 283 284 285 286 287 287 288 288 286 283 280 278 277 278 279 278 276 275 277 277 277 275 272 271 273 276 277 279 279 278 277 278 279
221 225 223 210 195 198 208 212 214 220 226 229 231 234 238 242 246 249 251 252 253 258 262 267 273 276 278 279 279 281 282 282 282 282 281 281 280 280 279 278 277 277 277 278 279 280 281 282 283 283 284 284 284 285 286 288 289 289 289 287 285 282 279 277 277 278 281 281 278 276 276 277 278 277 277 278 279 280 280 282 284 286 286 286 286
223 229 232 219 192 186 196 203 211 218 223 227 230 234 239 244 251 254 255 256 259 264 269 273 278 280 282 283 284 285 285 285 286 286 286 285 283 281 279 280 279 278 278 280 281 282 283 284 285 285 286 285 284 286 288 289 289 288 286 284 282 281 279 278 278 280 282 281 278 276 276 277 279 280 283 288 290 291 290 289 293 296 293 290 289
224 230 239 229 203 197 200 204 214 222 226 229 233 238 244 249 256 259 259 262 265 268 273 277 281 284 286 287 287 288 289 290 290 290 288 285 282 280 278 276 276 277 278 281 284 286 287 288 288 288 287 287 287 289 292 292 291 288 284 281 280 279 278 278 280 282 282 279 277 276 275 277 280 283 287 292 295 297 297 294 295 296 294 291 291
230 231 237 230 214 214 221 221 225 230 232 234 236 240 246 251 256 259 262 266 269 271 276 280 283 286 287 289 289 290 291 291 291 291 288 284 281 279 276 272 271 273 277 283 288 291 293 294 295 294 294 294 294 295 296 297 297 293 287 282 279 275 276 279 281 280 279 279 280 281 281 281 286 291 294 294 295 296 295 292 291 293 293 291 292
230 232 234 233 227 230 237 236 238 243 244 244 245 245 246 249 254 259 264 268 271 274 278 281 284 286 288 290 291 291 290 289 288 287 285 282 279 277 275 273 274 277 282 288 292 295 297 298 298 298 296 295 295 296 298 302 304 302 294 286 280 278 279 280 279 276 278 281 282 285 290 291 292 296 296 292 292 292 291 290 291 293 294 295 296
229 236 240 238 235 236 238 239 244 250 252 251 252 252 250 250 254 259 264 269 273 276 278 281 283 286 288 291 290 288 285 284 284 284 284 284 282 279 279 279 281 284 287 290 293 296 297 297 296 294 294 295 296 296 298 300 302 301 295 288 285 285 284 281 279 278 281 283 284 288 295 295 293 295 294 291 290 290 290 292 294 295 295 296 297
232 241 246 244 240 239 237 238 243 249 251 250 251 254 254 252 255 260 266 271 273 274 277 279 281 284 287 288 285 281 279 279 281 286 288 289 289 287 286 285 287 288 289 290 293 294 295 296 294 292 293 295 295 295 295 296 295 294 291 287 284 284 283 281 282 283 285 287 289 293 295 294 294 296 295 293 294 294 295 295 296 296 296 295 295
234 243 247 242 240 241 237 236 240 244 246 247 249 252 252 252 256 262 267 270 270 272 275 275 276 278 279 278 276 276 279 278 277 281 284 285 286 286 285 287 289 290 291 292 294 295 296 297 294 292 292 293 292 292 293 293 293 291 288 284 280 277 278 279 280 283 285 288 290 293 293 294 296 297 296 297 298 298 298 298 297 297 297 297 296
238 243 243 239 238 241 240 239 239 241 244 248 249 250 251 254 258 262 266 268 268 270 272 269 267 267 267 269 272 274 276 276 274 272 272 273 277 281 284 288 291 294 298 299 299 300 299 297 294 294 294 292 292 292 291 291 291 290 288 285 283 280 279 279 279 282 285 287 290 291 292 292 293 294 294 295 295 295 295 296 296 297 298 299 298
244 243 240 238 235 236 241 242 240 240 244 246 246 247 249 253 256 260 263 265 265 264 262 257 253 257 261 264 269 273 273 269 264 262 264 271 279 286 292 296 300 303 305 305 304 303 304 302 302 302 300 299 298 296 294 293 292 291 290 289 286 284 281 279 280 281 282 283 285 286 286 287 288 289 289 290 290 292 293 294 295 295 296 297 297
245 241 236 232 230 234 241 242 240 241 241 240 243 245 249 252 253 256 257 257 254 248 243 243 246 252 258 258 260 267 269 268 266 268 274 282 289 297 302 305 306 306 304 303 304 304 305 306 306 306 304 304 302 299 297 295 293 291 291 289 287 286 283 281 281 281 281 281 282 283 284 284 284 285 286 287 288 289 290 292 294 294 295 296 297
235 234 233 233 234 239 243 243 241 241 237 236 242 244 245 246 246 246 243 238 234 230 231 237 241 242 241 242 248 259 268 275 279 280 285 292 301 308 310 307 306 306 305 305 303 302 302 303 304 305 303 302 302 300 298 296 294 292 290 288 287 287 286 286 284 282 281 282 283 283 284 284 285 285 286 286 287 289 290 292 294 295 296 297 297
226 231 236 240 241 242 244 243 239 235 231 231 235 237 235 234 230 225 222 221 224 228 230 229 225 223 226 233 246 260 271 282 290 299 310 318 318 314 309 308 308 306 305 303 301 301 303 306 306 306 304 303 302 300 298 296 294 292 290 289 288 287 287 288 289 285 282 283 284 284 284 285 286 287 288 289 290 292 292 293 294 296 297 297 296
224 231 237 240 242 241 239 235 227 223 223 225 225 224 221 218 214 209 210 217 222 222 221 218 215 218 227 236 246 253 269 288 304 318 321 319 314 309 306 307 307 305 304 304 304 305 307 307 307 306 304 304 302 301 300 298 296 294 293 292 291 290 290 291 290 289 287 286 285 285 287 288 289 289 290 291 292 293 294 295 296 296 297 297 297
232 236 239 240 241 238 230 221 215 214 213 212 211 209 207 207 208 209 211 214 215 212 211 213 216 222 227 228 222 228 257 288 303 312 314 312 309 307 307 309 309 310 311 310 310 311 310 309 308 306 305 305 304 303 302 301 300 300 299 297 295 294 294 294 292 292 291 291 291 291 292 292 292 293 293 293 293 293 294 296 297 298 299 299 300
239 237 238 241 239 229 215 206 204 204 202 201 200 198 200 203 205 207 208 206 204 203 201 201 204 208 211 212 210 227 264 289 304 310 312 312 309 308 311 313 314 314 314 314 313 313 312 311 309 308 307 306 304 304 303 302 302 301 300 299 298 297 296 295 294 293 293 293 294 295 294 294 294 295 296 296 297 297 298 299 299 300 301 302 303
237 234 235 235 227 214 202 196 195 195 193 193 194 194 195 197 197 197 196 190 187 187 184 182 187 192 201 218 250 275 290 301 310 312 313 312 311 311 312 313 313 313 313 313 313 312 311 310 309 307 306 305 304 303 303 302 302 301 301 300 299 298 297 295 294 293 292 293 294 294 293 293 295 296 297 298 300 301 301 302 303 304 305 306 307
231 231 229 222 213 204 195 189 188 189 188 188 189 188 187 187 186 183 180 177 175 174 175 179 186 196 210 237 261 277 291 300 305 307 310 311 310 309 309 310 310 312 312 312 311 311 310 309 308 307 306 305 305 305 304 304 304 303 302 300 299 298 297 296 295 294 292 294 295 293 291 289 288 287 289 292 295 295 297 300 303 305 306 307 308
224 221 215 207 202 196 189 184 182 182 182 183 182 180 177 175 172 169 166 168 170 172 181 192 203 217 239 261 273 281 287 292 298 302 305 308 308 308 309 310 310 310 310 309 310 309 309 308 306 305 305 304 305 305 304 305 304 303 303 302 301 300 299 298 296 294 293 292 290 287 286 286 284 282 282 285 288 290 293 297 301 304 305 305 305
210 204 200 196 193 188 183 179 177 174 173 173 172 170 165 161 160 161 164 170 176 182 195 214 231 245 259 267 272 278 283 288 294 299 303 306 307 308 309 309 308 307 307 307 307 306 305 304 303 303 302 302 302 301 302 303 303 303 303 303 302 302 301 299 298 295 292 289 283 280 281 283 285 286 288 289 291 292 294 297 301 303 302 301 302
202 196 191 186 184 182 179 175 171 168 166 165 163 161 158 157 159 162 167 177 191 205 223 240 252 258 264 269 274 279 285 290 295 301 306 308 308 309 308 306 305 305 305 305 305 303 303 302 302 301 301 301 301 300 300 301 301 301 300 300 301 301 300 300 298 295 292 288 284 282 282 282 285 288 291 293 294 295 297 300 301 301 299 300 301
195 188 183 181 179 179 176 171 168 165 164 163 162 160 159 161 165 167 175 192 212 228 243 255 264 268 271 278 283 285 288 293 298 303 307 309 310 308 307 306 305 306 308 309 308 307 307 307 306 305 305 305 304 303 301 300 299 298 298 298 299 299 299 298 297 295 292 288 286 284 283 284 285 288 290 292 293 294 296 299 300 299 297 298 299
186 182 180 179 177 175 173 170 166 164 163 162 163 164 166 170 174 179 192 211 227 243 256 265 273 277 280 283 286 288 290 295 300 304 307 309 310 309 309 309 310 311 312 312 310 309 309 309 308 308 308 308 307 305 304 303 300 298 298 298 297 297 296 295 294 293 292 290 288 287 286 287 288 290 291 292 292 292 293 294 296 297 295 294 294
183 180 179 177 174 170 168 166 164 164 164 165 168 172 176 180 186 195 210 225 241 257 270 277 280 282 284 287 290 295 299 302 305 308 310 311 311 311 311 311 311 311 311 310 308 307 306 306 306 306 306 305 304 302 302 302 301 300 299 298 297 296 295 294 293 292 292 291 290 289 288 288 288 289 290 289 289 290 291 292 293 293 292 290 290
184 181 179 176 173 169 166 166 168 169 170 173 176 182 190 197 206 218 230 241 254 268 279 285 286 288 291 295 299 304 307 308 310 311 312 311 311 310 309 309 309 308 308 306 304 304 303 303 304 303 302 302 301 300 301 301 301 301 300 299 298 298 296 295 293 292 291 291 290 290 290 289 288 288 287 287 287 288 289 290 290 290 288 288 287
186 183 179 174 171 169 168 170 173 173 175 179 183 190 202 214 226 237 246 253 261 274 286 292 295 298 300 303 305 306 306 306 307 308 308 308 308 307 306 306 306 305 305 304 303 303 303 304 304 303 302 302 301 301 302 301 301 301 301 300 300 298 297 294 293 292 292 292 292 293 293 292 291 290 288 288 288 288 289 289 289 288 287 287 287
183 179 178 175 173 173 173 175 178 177 178 182 188 197 210 223 235 243 252 260 270 283 291 295 299 302 304 305 305 304 302 302 303 305 306 306 306 305 305 305 305 305 305 304 304 305 306 306 307 306 304 303 304 303 303 302 302 302 302 301 300 299 297 295 294 294 294 293 293 293 293 293 293 292 292 291 291 291 291 291 291 290 290 290 289
181 176 177 178 179 178 178 180 181 180 181 186 195 210 222 232 242 249 258 269 280 288 292 296 300 303 304 304 302 301 300 302 304 306 306 306 306 305 305 306 306 307 308 308 307 308 307 307 308 307 306 305 305 305 304 303 303 302 302 301 300 298 297 296 294 294 293 292 292 292 291 292 292 292 293 293 293 293 293 293 293 293 293 293 292
187 182 179 182 186 183 179 181 184 186 193 202 213 227 238 247 256 263 271 279 287 293 297 301 304 304 305 304 303 302 303 305 307 308 308 308 308 308 309 310 310 311 311 310 309 309 308 308 308 307 307 306 306 305 304 304 303 303 302 301 300 299 298 297 296 295 294 293 292 292 291 291 292 292 292 293 293 293 293 293 293 293 293 293 293
193 188 179 181 186 181 175 181 189 196 207 219 233 251 265 274 279 282 287 293 299 303 304 306 306 306 307 308 307 308 309 310 310 310 310 311 311 312 312 314 313 312 311 310 309 309 308 308 307 307 306 306 305 304 304 304 303 303 303 303 303 302 301 300 299 298 297 296 296 295 294 293 293 292 292 292 292 292 292 292 292 292 292 292 292
189 185 180 184 189 183 180 191 201 209 222 240 259 275 286 293 296 297 299 302 306 307 306 307 308 308 308 309 309 310 311 311 311 311 312 313 314 315 316 317 316 314 313 311 310 309 308 307 307 306 306 306 305 305 305 305 305 305 305 305 304 304 303 303 302 301 300 299 299 298 297 296 296 295 294 294 294 294 294 294 294 294 294 294 293
185 182 183 189 195 192 193 203 215 229 246 262 275 285 293 299 302 304 305 305 306 306 306 306 307 308 309 310 311 311 311 312 313 315 316 318 320 320 320 319 316 315 313 311 310 309 309 309 309 308 308 309 309 309 309 309 308 307 306 305 304 304 303 303 303 302 302 301 301 301 300 299 299 298 298 297 297 297 296 296 296 296 296 296 296
182 181 182 186 192 195 201 212 230 249 263 273 281 289 297 301 303 303 304 305 305 305 305 306 307 308 310 310 310 311 313 315 317 319 321 322 322 321 319 318 316 315 315 314 314 313 313 313 313 313 313 313 313 312 312 312 311 311 310 310 309 309 308 308 307 306 306 305 304 303 301 301 300 300 299 298 297 297 296 296 296 296 295 295 295
187 185 182 182 192 204 211 223 244 262 272 278 284 291 297 300 300 301 302 302 302 303 305 307 308 309 310 311 313 315 318 319 321 322 323 323 322 321 321 320 319 319 318 318 319 319 319 319 319 319 319 319 318 318 318 317 317 316 316 315 314 313 312 311 310 309 308 307 306 304 304 303 303 302 300 299 298 297 296 295 295 295 294 293 293
210 210 198 192 202 215 225 244 264 273 278 283 287 292 296 298 298 298 299 300 301 303 305 307 308 310 313 315 318 320 321 321 322 322 323 323 323 323 323 322 322 322 321 322 323 323 323 323 323 323 324 323 322 322 322 321 320 319 317 317 316 314 313 312 311 310 309 308 307 307 306 306 305 303 302 301 300 299 298 297 297 296 295 294 294
217 223 217 210 214 221 231 253 270 277 282 288 292 295 297 297 295 294 295 298 300 303 305 308 310 313 315 317 318 319 319 320 321 322 323 324 324 324 324 324 324 324 325 326 327 326 326 326 325 325 324 323 322 322 321 321 320 319 318 317 316 316 315 314 314 313 312 311 311 311 310 309 309 308 307 306 305 304 303 302 302 300 299 298 297
214 216 216 215 217 223 235 254 267 273 280 288 293 295 293 290 289 289 293 296 300 302 305 308 311 313 315 315 316 317 318 319 321 323 324 325 325 325 326 327 327 327 328 328 328 327 325 324 323 322 321 321 321 321 321 322 321 320 319 318 317 317 316 316 315 315 314 314 314 313 313 312 312 311 310 310 310 309 308 307 307 306 305 304 303
215 215 214 218 225 238 253 264 268 270 274 282 287 286 283 282 283 286 291 296 300 304 308 310 312 313 314 315 317 318 320 322 323 324 326 327 327 329 329 329 329 328 327 327 326 324 323 322 322 321 322 322 323 323 323 323 322 321 320 319 318 318 318 317 317 317 316 316 316 316 316 315 314 313 312 312 312 311 310 310 309 309 309 308 307
213 214 218 228 240 251 261 267 268 268 269 271 273 273 274 277 282 287 293 298 303 306 309 311 312 314 316 318 319 321 323 325 326 327 329 329 329 329 328 328 327 326 325 324 324 323 322 322 323 324 324 325 324 324 323 323 322 321 321 320 319 319 318 318 317 317 316 316 317 317 316 315 314 313 313 313 313 312 311 310 310 309 309 308 308
206 210 218 231 243 252 259 263 264 264 263 263 265 268 273 279 285 290 295 300 303 306 309 311 314 316 318 320 321 323 325 327 328 328 328 327 326 326 326 326 325 325 324 323 323 323 323 324 325 325 325 325 324 324 323 322 321 320 319 318 318 317 317 316 316 316 316 316 316 316 316 315 314 314 313 313 312 311 310 310 309 308 308 307 307
206 214 222 233 243 249 253 256 257 257 259 262 267 272 277 283 288 293 297 300 304 307 310 312 314 316 318 321 324 327 328 327 326 326 325 325 326 326 325 325 325 324 323 323 324 325 325 326 326 325 324 323 323 322 321 321 320 320 320 319 318 318 318 318 318 318 318 317 317 316 316 315 315 314 313 312 311 310 309 308 307 306 306 306 305
215 219 223 233 241 245 246 249 251 254 260 267 272 277 282 287 291 294 298 302 305 307 309 312 315 319 323 326 327 327 326 325 325 325 325 325 324 324 325 326 327 327 327 328 328 328 328 327 326 325 324 323 323 322 322 322 322 323 323 322 321 321 320 319 319 318 317 316 315 315 315 314 314 312 311 311 310 309 308 307 305 305 305 304 304
231 231 231 236 242 242 242 246 254 260 267 272 276 281 285 288 292 296 300 303 306 309 313 318 322 325 326 326 325 325 326 326 326 325 324 325 326 327 329 330 331 331 331 331 331 330 329 328 327 326 326 325 325 325 324 324 323 323 322 321 320 319 318 316 315 314 313 313 312 312 312 312 311 310 309 308 308 307 307 307 307 306 306 305 304
232 233 233 234 238 241 245 253 260 265 269 274 278 283 287 291 296 301 304 308 313 318 322 324 324 324 324 325 326 327 327 326 326 326 328 330 331 333 333 335 335 335 334 334 333 332 331 330 330 329 328 328 327 326 325 323 322 321 321 320 318 317 315 314 312 312 312 311 310 309 310 310 309 308 307 307 307 307 307 307 308 308 308 307 307
210 215 221 227 237 246 252 258 263 267 273 278 283 288 293 298 304 308 311 317 320 321 322 323 325 326 328 328 328 328 328 328 330 332 334 336 337 338 338 338 338 337 336 335 334 333 332 331 331 330 329 328 326 325 324 322 320 320 319 319 316 315 314 313 312 311 311 310 309 310 310 310 309 308 307 307 307 306 306 306 307 308 308 308 307
193 205 218 228 238 246 251 257 265 271 278 283 289 295 300 305 309 313 316 319 321 323 327 329 328 327 327 326 327 330 333 335 339 340 340 341 342 342 342 341 340 339 338 336 335 334 333 331 330 328 327 326 324 323 322 320 318 318 318 316 314 313 312 312 311 310 309 309 309 310 310 310 310 309 309 308 307 306 306 306 307 307 307 307 307
Height
3199 3199 3200 3200 3201 3202 3203 3204 3205 3205 3206 3207 3208 3209 3210 3210 3211 3211 3212 3212 3213 3214 3214 3214 3214 3215 3216 3216 3216 3216 3216 3216 3216 3216 3216 3216 3215 3215 3215 3215 3215 3215 3215 3215 3215 3214 3214 3214 3214 3214 3213 3213 3213 3212 3211 3211 3210 3209 3209 3208 3208 3208 3207 3205 3204 3203 3204 3204 3203 3202 3201 3200 3200 3200 3199 3198 3197 3197 3196 3195 3195 3194 3193 3192 3192
3197 3198 3198 3199 3199 3200 3201 3202 3203 3204 3204 3206 3207 3208 3209 3209 3210 3210 3211 3211 3212 3212 3213 3213 3213 3213 3213 3213 3213 3213 3213 3213 3213 3213 3213 3213 3213 3213 3212 3212 3212 3212 3211 3211 3211 3210 3210 3210 3211 3211 3210 3209 3209 3209 3208 3207 3206 3206 3206 3205 3205 3204 3203 3201 3199 3198 3198 3198 3198 3197 3197 3196 3196 3195 3194 3193 3192 3191 3191 3190 3190 3189 3189 3188 3188
3195 3196 3196 3197 3197 3198 3199 3200 3201 3202 3203 3204 3206 3207 3207 3208 3209 3209 3210 3210 3211 3211 3211 3211 3210 3211 3211 3211 3211 3211 3211 3211 3211 3211 3211 3211 3210 3210 3210 3209 3209 3209 3209 3208 3208 3207 3207 3207 3207 3207 3206 3206 3206 3205 3204 3204 3204 3203 3203 3202 3201 3200 3198 3196 3195 3193 3193 3193 3193 3193 3192 3191 3191 3191 3189 3188 3187 3186 3185 3185 3185 3185 3184 3183 3183
3193 3194 3194 3195 3196 3197 3198 3198 3199 3200 3201 3203 3205 3205 3206 3206 3207 3207 3208 3208 3208 3209 3208 3208 3208 3209 3209 3209 3209 3209 3209 3209 3208 3208 3208 3208 3208 3208 3207 3207 3207 3206 3206 3205 3205 3205 3205 3204 3204 3204 3203 3202 3202 3202 3202 3201 3201 3200 3199 3198 3196 3195 3194 3193 3191 3190 3189 3189 3189 3188 3187 3186 3186 3186 3185 3183 3182 3181 3180 3180 3180 3180 3179 3178 3178
3191 3191 3191 3192 3193 3194 3196 3196 3198 3199 3200 3202 3203 3203 3203 3204 3204 3205 3205 3205 3206 3206 3206 3207 3207 3207 3207 3207 3207 3207 3207 3206 3206 3206 3206 3205 3205 3205 3205 3205 3204 3204 3203 3203 3203 3202 3202 3201 3201 3201 3200 3200 3200 3199 3198 3197 3196 3195 3194 3194 3192 3191 3190 3189 3187 3186 3185 3185 3185 3184 3183 3181 3180 3180 3180 3177 3176 3175 3175 3175 3175 3175 3175 3174 3175
3187 3186 3186 3188 3191 3192 3194 3195 3196 3197 3198 3199 3200 3200 3200 3201 3202 3202 3203 3203 3203 3204 3204 3205 3205 3205 3205 3205 3205 3205 3205 3204 3204 3203 3203 3203 3202 3202 3202 3201 3201 3201 3201 3201 3200 3200 3199 3198 3198 3198 3197 3197 3196 3195 3194 3193 3192 3191 3190 3189 3188 3187 3186 3185 3184 3182 3181 3181 3180 3178 3177 3176 3175 3175 3175 3173 3172 3171 3170 3170 3172 3172 3172 3172 3172
3183 3183 3184 3187 3191 3192 3193 3194 3195 3195 3196 3196 3197 3197 3198 3199 3200 3200 3201 3201 3201 3202 3202 3203 3203 3203 3203 3203 3203 3203 3202 3202 3201 3201 3200 3200 3199 3199 3199 3198 3198 3198 3198 3198 3197 3197 3196 3196 3195 3195 3194 3193 3193 3191 3190 3188 3187 3186 3185 3185 3184 3183 3182 3181 3180 3179 3177 3176 3175 3173 3172 3171 3169 3170 3171 3170 3170 3169 3167 3168 3169 3170 3169 3168 3167
3181 3184 3187 3189 3191 3192 3192 3193 3193 3194 3194 3195 3195 3196 3196 3197 3198 3198 3199 3199 3199 3200 3201 3201 3201 3201 3201 3201 3201 3200 3199 3199 3198 3197 3196 3196 3196 3195 3195 3195 3195 3195 3195 3195 3194 3194 3193 3193 3192 3191 3191 3190 3189 3188 3186 3184 3182 3182 3181 3181 3180 3179 3178 3177 3176 3175 3174 3172 3170 3169 3168 3166 3165 3166 3167 3167 3167 3166 3165 3164 3166 3166 3165 3164 3163
3182 3185 3188 3189 3190 3191 3191 3191 3192 3192 3193 3193 3193 3194 3195 3196 3196 3197 3197 3197 3198 3198 3199 3199 3199 3199 3199 3198 3198 3197 3196 3195 3194 3193 3193 3192 3192 3192 3192 3192 3193 3193 3193 3192 3192 3191 3190 3190 3189 3188 3188 3187 3186 3185 3184 3181 3179 3179 3178 3177 3177 3176 3175 3174 3173 3172 3171 3169 3168 3167 3166 3164 3163 3165 3165 3164 3163 3163 3162 3161 3162 3162 3162 3161 3160
3183 3185 3187 3188 3189 3190 3191 3190 3190 3190 3191 3191 3192 3192 3193 3194 3194 3195 3195 3196 3196 3197 3197 3197 3197 3197 3196 3196 3195 3194 3193 3192 3191 3191 3190 3189 3189 3189 3189 3190 3190 3190 3191 3190 3190 3189 3188 3188 3187 3186 3185 3185 3184 3183 3181 3180 3178 3177 3176 3175 3174 3173 3172 3172 3171 3169 3168 3167 3166 3165 3164 3163 3163 3163 3163 3161 3160 3160 3159 3159 3159 3159 3158 3158 3158
3182 3183 3185 3187 3188 3189 3189 3189 3188 3189 3189 3189 3190 3190 3191 3192 3192 3193 3194 3194 3194 3194 3195 3195 3195 3194 3193 3193 3192 3191 3191 3190 3190 3189 3189 3188 3188 3188 3188 3188 3188 3188 3188 3188 3188 3187 3186 3186 3185 3184 3184 3183 3182 3180 3179 3178 3177 3175 3174 3173 3172 3170 3170 3170 3169 3167 3166 3166 3164 3162 3162 3161 3161 3162 3161 3160 3159 3158 3158 3157 3156 3156 3156 3156 3155
3181 3182 3184 3185 3186 3186 3186 3186 3187 3187 3187 3187 3188 3188 3189 3190 3191 3192 3192 3192 3192 3192 3193 3193 3192 3192 3191 3191 3190 3190 3189 3189 3189 3188 3188 3188 3187 3187 3187 3187 3187 3187 3187 3186 3186 3185 3184 3184 3183 3182 3181 3181 3179 3178 3177 3176 3175 3174 3173 3172 3171 3169 3168 3168 3167 3166 3164 3164 3162 3161 3160 3160 3159 3159 3159 3158 3157 3157 3156 3155 3154 3153 3153 3153 3153
3180 3181 3183 3184 3184 3183 3183 3184 3185 3185 3185 3185 3186 3186 3187 3188 3189 3190 3190 3190 3190 3190 3190 3190 3190 3190 3190 3190 3189 3189 3188 3188 3188 3187 3187 3187 3187 3186 3186 3186 3186 3185 3185 3184 3184 3183 3183 3182 3181 3180 3180 3179 3178 3177 3176 3175 3174 3173 3172 3170 3169 3168 3167 3166 3165 3164 3163 3162 3161 3160 3159 3158 3158 3157 3156 3155 3155 3154 3153 3153 3152 3151 3150 3150 3150
3179 3180 3181 3182 3181 3181 3181 3182 3183 3184 3184 3184 3184 3185 3186 3187 3187 3188 3188 3188 3188 3188 3188 3188 3188 3189 3189 3188 3188 3188 3187 3187 3186 3186 3186 3186 3185 3185 3185 3185 3185 3184 3184 3183 3183 3182 3182 3181 3180 3179 3178 3177 3176 3176 3175 3173 3172 3171 3170 3169 3168 3167 3166 3165 3164 3163 3162 3160 3159 3159 3158 3157 3156 3155 3155 3154 3153 3152 3151 3150 3150 3149 3148 3148 3147
3177 3178 3179 3180 3180 3180 3180 3181 3182 3182 3182 3183 3183 3184 3184 3185 3186 3186 3186 3186 3186 3186 3186 3187 3187 3187 3187 3187 3187 3187 3186 3186 3186 3185 3185 3185 3185 3185 3185 3184 3184 3183 3183 3182 3182 3181 3181 3180 3179 3178 3177 3176 3175 3174 3173 3172 3171 3169 3168 3167 3166 3165 3164 3163 3162 3161 3160 3159 3158 3157 3156 3155 3154 3154 3153 3152 3151 3150 3149 3148 3148 3147 3146 3146 3145
3177 3177 3178 3178 3179 3179 3179 3180 3180 3181 3181 3181 3182 3182 3183 3184 3184 3184 3185 3185 3185 3185 3185 3186 3186 3186 3186 3186 3186 3185 3185 3185 3185 3185 3185 3185 3185 3184 3184 3184 3183 3183 3182 3181 3180 3180 3179 3179 3178 3176 3175 3174 3173 3172 3171 3170 3169 3168 3166 3165 3164 3163 3161 3160 3160 3159 3157 3156 3156 3155 3154 3153 3152 3152 3151 3150 3149 3148 3147 3146 3146 3145 3144 3143 3143
3176 3176 3176 3177 3177 3178 3178 3179 3179 3179 3180 3180 3181 3181 3182 3182 3182 3183 3183 3184 3184 3184 3184 3185 3185 3185 3185 3185 3185 3185 3185 3185 3185 3185 3184 3184 3184 3183 3183 3182 3182 3181 3181 3180 3179 3178 3178 3177 3176 3175 3173 3172 3171 3170 3169 3168 3167 3166 3164 3163 3162 3161 3159 3158 3157 3157 3155 3154 3154 3153 3152 3151 3150 3149 3148 3147 3147 3146 3145 3144 3144 3143 3142 3141 3140
3175 3175 3175 3175 3176 3177 3177 3178 3178 3178 3178 3179 3180 3180 3181 3181 3181 3182 3182 3182 3183 3183 3184 3184 3184 3184 3184 3184 3184 3184 3184 3184 3184 3184 3183 3183 3183 3182 3181 3181 3180 3179 3179 3178 3177 3176 3176 3175 3174 3172 3171 3170 3169 3168 3167 3166 3165 3164 3162 3161 3160 3159 3157 3156 3155 3155 3154 3153 3152 3151 3150 3149 3148 3147 3146 3145 3145 3144 3143 3142 3141 3140 3139 3138 3137
3173 3173 3173 3174 3175 3176 3176 3176 3176 3177 3177 3178 3179 3179 3180 3180 3180 3181 3181 3182 3182 3182 3183 3183 3183 3183 3183 3183 3184 3184 3184 3183 3183 3183 3182 3182 3182 3181 3180 3180 3179 3178 3177 3176 3176 3174 3173 3172 3171 3170 3169 3168 3167 3166 3165 3164 3163 3162 3161 3159 3158 3157 3156 3155 3154 3153 3152 3151 3150 3149 3148 3147 3146 3145 3144 3143 3142 3141 3140 3139 3139 3138 3136 3135 3134
3172 3172 3172 3173 3173 3174 3175 3175 3176 3176 3177 3177 3178 3178 3179 3179 3179 3180 3180 3181 3181 3181 3182 3182 3182 3182 3183 3183 3183 3183 3183 3183 3182 3182 3182 3181 3181 3180 3179 3178 3177 3176 3175 3174 3173 3172 3171 3170 3169 3168 3167 3166 3165 3164 3162 3162 3161 3160 3159 3157 3156 3155 3154 3153 3152 3151 3150 3149 3148 3147 3146 3145 3144 3143 3142 3141 3140 3139 3138 3137 3135 3134 3133 3132 3130
3170 3170 3171 3171 3172 3173 3174 3174 3174 3175 3175 3176 3177 3177 3178 3178 3179 3179 3180 3180 3180 3181 3181 3182 3182 3182 3182 3182 3182 3182 3182 3182 3181 3181 3181 3180 3179 3178 3177 3176 3175 3174 3173 3172 3171 3170 3169 3168 3167 3166 3165 3164 3163 3161 3160 3159 3158 3157 3156 3155 3154 3153 3152 3151 3150 3149 3148 3147 3146 3145 3144 3143 3142 3140 3139 3137 3136 3136 3135 3133 3132 3131 3130 3129 3127
3168 3169 3169 3170 3170 3171 3172 3173 3173 3174 3175 3175 3176 3177 3177 3178 3178 3179 3179 3179 3180 3181 3181 3182 3182 3182 3182 3181 3181 3181 3181 3180 3180 3179 3179 3178 3177 3176 3175 3174 3173 3172 3171 3170 3169 3168 3167 3166 3165 3164 3163 3162 3161 3159 3158 3157 3156 3155 3154 3153 3152 3151 3149 3148 3147 3147 3146 3145 3145 3144 3142 3141 3140 3138 3137 3135 3134 3133 3132 3130 3129 3128 3126 3125 3124
3167 3168 3168 3169 3170 3170 3171 3172 3173 3174 3174 3175 3176 3176 3177 3177 3178 3178 3179 3179 3180 3180 3181 3181 3181 3181 3181 3181 3180 3180 3180 3179 3179 3178 3178 3177 3176 3175 3174 3173 3172 3171 3170 3169 3168 3167 3166 3165 3164 3162 3161 3160 3158 3157 3156 3155 3154 3153 3152 3151 3149 3148 3147 3146 3145 3144 3143 3143 3142 3141 3140 3139 3138 3136 3135 3133 3132 3130 3129 3128 3127 3125 3124 3123 3121
3166 3167 3168 3168 3169 3170 3171 3171 3172 3173 3174 3175 3175 3176 3176 3177 3178 3178 3178 3179 3179 3180 3180 3180 3180 3180 3180 3180 3180 3179 3179 3179 3178 3177 3177 3176 3175 3173 3172 3171 3170 3169 3168 3167 3166 3165 3164 3163 3161 3160 3158 3157 3156 3154 3153 3152 3151 3150 3149 3148 3147 3146 3145 3144 3143 3141 3141 3140 3140 3139 3137 3136 3134 3133 3132 3131 3130 3128 3127 3126 3125 3123 3122 3121 3119
3165 3166 3166 3167 3168 3169 3170 3171 3172 3173 3174 3175 3175 3176 3176 3177 3177 3178 3178 3179 3179 3179 3179 3179 3179 3179 3179 3179 3179 3179 3178 3177 3177 3176 3175 3174 3173 3172 3170 3169 3168 3168 3167 3166 3165 3163 3162 3160 3159 3157 3156 3155 3153 3152 3151 3149 3148 3147 3146 3145 3144 3143 3142 3141 3140 3139 3138 3137 3136 3136 3135 3133 3132 3130 3129 3129 3128 3126 3125 3124 3123 3121 3120 3118 3117
3164 3165 3165 3166 3167 3168 3169 3170 3172 3173 3174 3175 3175 3176 3177 3177 3177 3178 3178 3178 3178 3178 3178 3179 3179 3179 3179 3178 3178 3178 3177 3176 3175 3174 3173 3172 3171 3170 3169 3168 3167 3166 3165 3164 3162 3161 3159 3158 3157 3155 3154 3152 3151 3150 3148 3147 3146 3145 3144 3143 3141 3140 3139 3138 3137 3136 3135 3134 3133 3132 3131 3130 3129 3127 3126 3126 3125 3124 3122 3121 3120 3119 3117 3116 3114
3163 3164 3164 3165 3166 3167 3168 3170 3171 3172 3173 3174 3175 3175 3176 3177 3177 3177 3177 3178 3178 3178 3178 3178 3178 3178 3178 3177 3177 3176 3175 3174 3173 3172 3171 3170 3169 3168 3167 3166 3165 3163 3162 3161 3159 3158 3156 3155 3154 3152 3151 3150 3149 3147 3146 3145 3144 3142 3141 3140 3139 3138 3137 3136 3135 3133 3132 3131 3130 3129 3128 3127 3126 3124 3123 3123 3122 3121 3120 3118 3117 3115 3114 3113 3111
3161 3162 3163 3164 3165 3166 3168 3169 3170 3171 3172 3173 3174 3174 3175 3175 3175 3176 3176 3177 3177 3177 3177 3177 3177 3177 3176 3176 3175 3174 3173 3172 3171 3170 3169 3168 3167 3166 3164 3163 3162 3161 3160 3158 3156 3155 3153 3152 3151 3149 3148 3147 3146 3144 3143 3142 3142 3140 3139 3138 3137 3136 3134 3133 3132 3130 3129 3128 3127 3126 3125 3124 3123 3121 3120 3119 3118 3117 3115 3114 3113 3112 3110 3109 3108
3160 3161 3162 3163 3164 3166 3167 3168 3169 3170 3171 3172 3173 3173 3174 3174 3174 3175 3175 3176 3176 3176 3175 3175 3175 3175 3174 3174 3173 3172 3171 3170 3169 3168 3167 3166 3164 3163 3162 3160 3159 3158 3157 3155 3154 3152 3151 3150 3148 3147 3146 3144 3143 3142 3140 3139 3139 3138 3136 3135 3134 3133 3131 3130 3129 3127 3126 3124 3123 3122 3121 3120 3119 3118 3117 3116 3114 3113 3111 3110 3109 3108 3106 3105 3103
3159 3160 3161 3162 3163 3165 3166 3167 3168 3169 3170 3171 3172 3173 3173 3173 3174 3174 3174 3174 3174 3174 3174 3173 3173 3173 3172 3171 3171 3170 3168 3167 3166 3165 3164 3163 3162 3160 3159 3158 3157 3156 3154 3153 3151 3150 3148 3147 3146 3145 3143 3142 3141 3139 3138 3137 3136 3134 3133 3132 3131 3130 3128 3127 3125 3123 3122 3121 3119 3118 3117 3116 3115 3114 3112 3111 3110 3108 3107 3106 3105 3103 3102 3100 3099
3158 3159 3161 3162 3163 3164 3165 3166 3167 3168 3169 3170 3171 3171 3172 3172 3173 3173 3173 3173 3172 3172 3172 3172 3171 3171 3170 3169 3168 3167 3166 3165 3164 3163 3162 3161 3160 3158 3157 3156 3155 3153 3152 3150 3149 3147 3146 3144 3143 3142 3140 3139 3138 3136 3135 3134 3132 3131 3130 3129 3127 3126 3125 3123 3121 3120 3118 3117 3115 3114 3112 3111 3110 3109 3108 3106 3105 3104 3103 3101 3100 3098 3097 3096 3095
3156 3158 3160 3161 3162 3163 3163 3164 3165 3166 3167 3168 3169 3170 3170 3171 3171 3171 3171 3171 3171 3170 3170 3170 3170 3169 3168 3167 3166 3165 3164 3163 3162 3161 3160 3159 3157 3156 3155 3154 3152 3151 3149 3148 3146 3144 3143 3141 3140 3139 3137 3136 3134 3133 3132 3130 3129 3128 3127 3125 3124 3122 3121 3119 3118 3116 3115 3113 3112 3110 3108 3107 3105 3104 3103 3102 3100 3099 3098 3096 3095 3093 3092 3091 3090
3153 3155 3158 3159 3160 3160 3162 3163 3164 3165 3165 3166 3167 3168 3169 3169 3170 3170 3170 3170 3169 3169 3169 3168 3168 3167 3166 3166 3165 3164 3162 3161 3160 3159 3157 3156 3155 3153 3152 3151 3149 3148 3146 3145 3143 3141 3140 3138 3137 3136 3134 3132 3131 3130 3128 3127 3126 3125 3123 3122 3120 3119 3117 3116 3114 3113 3111 3110 3108 3106 3105 3103 3102 3100 3099 3097 3096 3094 3093 3092 3090 3089 3087 3086 3085
3151 3153 3156 3157 3158 3159 3160 3161 3162 3163 3164 3165 3166 3167 3168 3168 3169 3169 3168 3168 3167 3167 3166 3166 3165 3165 3164 3163 3162 3161 3160 3159 3158 3156 3155 3153 3152 3150 3149 3148 3146 3144 3143 3141 3140 3138 3137 3135 3134 3133 3131 3130 3128 3127 3125 3124 3122 3121 3119 3118 3116 3115 3114 3112 3110 3109 3107 3106 3104 3103 3101 3100 3098 3096 3095 3093 3092 3090 3089 3087 3086 3085 3083 3082 3081
3150 3152 3154 3155 3156 3157 3157 3159 3161 3163 3164 3165 3165 3166 3166 3167 3167 3166 3166 3165 3165 3164 3163 3163 3163 3162 3161 3160 3159 3158 3157 3156 3154 3153 3151 3150 3149 3147 3145 3144 3143 3141 3140 3139 3137 3136 3134 3133 3131 3130 3128 3127 3125 3123 3122 3120 3119 3117 3116 3114 3113 3111 3110 3108 3107 3105 3104 3102 3100 3099 3097 3096 3094 3093 3091 3090 3088 3087 3085 3084 3082 3081 3079 3078 3077
3148 3149 3150 3152 3154 3156 3157 3159 3161 3162 3163 3163 3163 3164 3164 3164 3164 3164 3163 3163 3162 3162 3161 3160 3160 3159 3158 3157 3156 3155 3154 3152 3151 3150 3148 3147 3145 3144 3142 3141 3140 3139 3138 3136 3135 3134 3132 3130 3129 3127 3125 3124 3122 3120 3119 3117 3116 3114 3113 3111 3109 3108 3106 3105 3103 3102 3100 3099 3097 3095 3094 3092 3091 3089 3088 3086 3084 3083 3081 3080 3078 3076 3075 3074 3072
3147 3148 3149 3151 3153 3155 3157 3159 3160 3161 3162 3162 3161 3162 3162 3162 3161 3161 3161 3160 3160 3159 3158 3158 3157 3156 3155 3154 3153 3152 3151 3149 3148 3147 3145 3144 3142 3141 3140 3139 3138 3136 3135 3134 3132 3131 3129 3128 3126 3124 3123 3121 3119 3117 3116 3114 3113 3111 3109 3108 3106 3104 3103 3102 3100 3099 3097 3095 3094 3092 3090 3088 3087 3085 3084 3082 3080 3079 3077 3075 3074 3072 3071 3069 3068
3145 3146 3147 3149 3151 3153 3155 3157 3159 3159 3160 3159 3159 3160 3160 3160 3159 3159 3159 3158 3157 3156 3156 3155 3154 3153 3153 3152 3151 3149 3148 3146 3145 3144 3142 3141 3140 3139 3138 3136 3135 3134 3132 3131 3129 3128 3126 3125 3123 3121 3120 3118 3116 3115 3113 3111 3110 3108 3106 3104 3103 3101 3100 3098 3097 3095 3093 3092 3090 3088 3086 3085 3083 3082 3080 3078 3076 3075 3073 3071 3070 3068 3066 3065 3063
3146 3145 3145 3147 3150 3152 3154 3155 3156 3157 3157 3157 3157 3158 3157 3157 3157 3157 3156 3156 3155 3154 3153 3152 3151 3150 3149 3148 3147 3146 3144 3143 3141 3140 3140 3139 3137 3136 3135 3133 3132 3130 3129 3128 3126 3125 3123 3121 3120 3118 3116 3115 3113 3111 3110 3108 3106 3104 3103 3101 3100 3098 3096 3095 3093 3092 3090 3088 3086 3084 3083 3081 3080 3078 3076 3074 3072 3071 3069 3067 3066 3064 3062 3061 3059
3147 3148 3148 3149 3151 3152 3153 3154 3155 3155 3156 3156 3156 3156 3155 3155 3155 3155 3154 3153 3152 3151 3150 3149 3148 3147 3146 3145 3143 3142 3141 3140 3139 3138 3137 3136 3135 3133 3132 3130 3129 3127 3126 3125 3123 3121 3120 3118 3116 3115 3113 3112 3110 3108 3107 3105 3103 3101 3100 3098 3097 3095 3093 3091 3090 3088 3086 3084 3082 3081 3079 3077 3076 3074 3072 3070 3068 3067 3065 3063 3061 3060 3058 3056 3055
3145 3147 3149 3150 3151 3151 3152 3153 3154 3154 3154 3154 3154 3154 3153 3153 3153 3152 3151 3150 3149 3148 3147 3146 3145 3144 3143 3142 3141 3141 3140 3139 3138 3136 3135 3134 3132 3131 3129 3128 3126 3125 3123 3122 3120 3119 3117 3115 3114 3112 3111 3109 3107 3106 3104 3103 3101 3099 3097 3095 3094 3092 3090 3088 3086 3085 3083 3081 3079 3077 3075 3073 3072 3070 3068 3066 3064 3062 3060 3059 3057 3055 3054 3052 3050
3143 3145 3147 3148 3149 3150 3150 3151 3152 3153 3153 3153 3152 3152 3152 3151 3151 3149 3148 3147 3147 3146 3145 3144 3143 3142 3141 3141 3140 3139 3138 3137 3135 3134 3132 3131 3130 3128 3127 3126 3124 3123 3121 3119 3118 3116 3115 3113 3112 3110 3109 3107 3105 3104 3102 3100 3098 3096 3094 3093 3091 3089 3087 3085 3083 3081 3079 3077 3075 3073 3071 3069 3067 3065 3063 3062 3060 3058 3056 3054 3052 3051 3049 3047 3046
3141 3143 3145 3146 3147 3148 3149 3150 3150 3151 3151 3151 3151 3150 3150 3149 3148 3147 3146 3145 3144 3143 3143 3142 3141 3141 3140 3139 3138 3136 3135 3134 3133 3131 3130 3129 3128 3126 3125 3124 3122 3121 3119 3118 3116 3115 3113 3112 3110 3109 3107 3105 3103 3101 3099 3097 3096 3094 3092 3090 3088 3086 3084 3082 3080 3078 3076 3074 3072 3070 3067 3065 3063 3061 3059 3058 3056 3054 3052 3050 3048 3046 3044 3043 3041
3139 3141 3143 3144 3145 3146 3147 3148 3148 3149 3149 3149 3148 3148 3147 3147 3146 3145 3144 3143 3142 3141 3140 3140 3139 3138 3138 3137 3135 3134 3133 3132 3130 3129 3128 3127 3126 3125 3124 3122 3121 3120 3118 3117 3115 3114 3112 3110 3108 3106 3104 3102 3101 3099 3097 3095 3093 3091 3089 3087 3085 3083 3081 3079 3077 3075 3073 3071 3068 3066 3064 3062 3060 3057 3055 3054 3052 3050 3048 3046 3044 3042 3040 3038 3036
3138 3140 3141 3142 3143 3144 3145 3146 3147 3146 3146 3146 3145 3145 3144 3144 3143 3142 3142 3141 3140 3139 3139 3138 3137 3136 3135 3134 3133 3132 3131 3130 3129 3128 3127 3126 3125 3124 3123 3121 3120 3119 3117 3115 3114 3112 3110 3108 3106 3104 3102 3100 3098 3096 3094 3092 3091 3089 3087 3085 3082 3080 3078 3075 3073 3071 3069 3067 3065 3063 3061 3058 3056 3054 3051 3049 3048 3046 3044 3042 3040 3038 3036 3034 3032
3137 3138 3139 3140 3141 3142 3143 3144 3144 3144 3143 3143 3143 3142 3142 3141 3141 3140 3140 3139 3138 3137 3137 3136 3135 3134 3133 3132 3132 3131 3130 3129 3128 3127 3126 3125 3124 3123 3122 3120 3119 3117 3115 3113 3111 3109 3107 3105 3103 3101 3099 3097 3095 3093 3091 3089 3087 3085 3083 3081 3079 3077 3074 3072 3069 3067 3065 3063 3061 3059 3057 3055 3053 3050 3047 3045 3043 3041 3040 3038 3036 3034 3032 3030 3028
3136 3136 3138 3139 3140 3141 3141 3141 3141 3141 3141 3141 3141 3140 3140 3139 3139 3138 3138 3137 3136 3135 3135 3134 3133 3133 3132 3131 3131 3130 3129 3128 3127 3126 3125 3124 3123 3121 3120 3118 3116 3114 3112 3110 3108 3106 3104 3102 3100 3098 3096 3094 3092 3090 3088 3086 3083 3081 3079 3077 3074 3072 3070 3068 3065 3063 3061 3059 3057 3055 3053 3051 3049 3046 3043 3041 3039 3037 3035 3033 3032 3030 3028 3026 3024
3135 3135 3136 3138 3139 3139 3139 3139 3139 3140 3140 3139 3139 3139 3138 3138 3137 3137 3136 3135 3135 3134 3133 3133 3132 3131 3131 3130 3130 3129 3128 3127 3126 3125 3123 3122 3120 3118 3117 3115 3113 3111 3109 3107 3105 3104 3102 3100 3098 3096 3094 3092 3089 3087 3084 3082 3080 3078 3076 3073 3071 3069 3067 3065 3062 3060 3058 3055 3053 3051 3049 3047 3045 3042 3040 3037 3034 3032 3030 3028 3026 3024 3023 3021 3019
3134 3135 3135 3136 3137 3137 3138 3138 3138 3138 3138 3138 3137 3137 3137 3136 3135 3135 3134 3134 3133 3132 3132 3131 3131 3130 3130 3129 3129 3128 3127 3125 3124 3122 3121 3119 3117 3115 3114 3112 3110 3108 3107 3105 3103 3101 3099 3097 3095 3093 3091 3088 3086 3084 3081 3079 3077 3074 3072 3070 3068 3065 3063 3061 3059 3056 3053 3051 3048 3046 3044 3043 3040 3038 3035 3033 3030 3027 3025 3023 3021 3019 3017 3015 3014
3133 3134 3134 3135 3136 3136 3136 3136 3136 3136 3136 3136 3135 3135 3135 3134 3134 3133 3133 3132 3132 3131 3131 3130 3130 3130 3129 3128 3127 3126 3125 3123 3121 3120 3118 3116 3115 3113 3112 3110 3108 3106 3105 3103 3101 3099 3096 3094 3092 3089 3087 3085 3083 3081 3078 3076 3073 3071 3069 3067 3064 3061 3059 3056 3054 3051 3048 3045 3043 3041 3039 3037 3035 3033 3031 3028 3026 3023 3020 3018 3016 3014 3012 3010 3009
3132 3133 3133 3134 3134 3134 3134 3134 3134 3134 3134 3134 3134 3133 3133 3133 3133 3132 3132 3132 3131 3131 3130 3130 3129 3128 3127 3126 3125 3124 3122 3121 3119 3118 3116 3114 3113 3111 3109 3108 3106 3104 3102 3100 3098 3096 3094 3092 3090 3088 3085 3083 3081 3078 3076 3073 3070 3068 3066 3064 3061 3058 3055 3052 3048 3046 3043 3040 3037 3035 3033 3031 3029 3027 3025 3023 3021 3018 3016 3013 3011 3009 3008 3006 3004